Regional Weather Roundup
Issued by NWS Midland/Odessa, TX

Skip options and go directly to product.
Home | Oldest Version | Previous Version | Current Version | All | Text Only | Save Text | Print | Product List | Glossary On

Skip product version selection by date and time.   
579
ASUS44 KMAF 250110
RWRMAF
MIDLAND AREA WEATHER ROUNDUP
NATIONAL WEATHER SERVICE MIDLAND TX
800 PM CDT WED MAY 24 2017

...IN SOUTHWEST TEXAS AND SOUTHEAST NEW MEXICO...

CITY           SKY/WX    TMP DP  RH WIND       PRES   REMARKS
ALPINE         CLEAR     86  28  12 NW10      29.90S
ANDREWS        FAIR      85  33  15 SW8       29.73S
ARTESIA        SUNNY     91  37  15 SE10      29.68S
BIG SPRING     CLEAR     82  38  21 S6        29.73F
CARLSBAD       CLEAR     93  29  10 W25       29.65F
DRYDEN           N/A     82  45  27 SE14      29.73S
FORT STOCKTON  CLEAR     91  34  13 NW8       29.72F
GUAD PASS      SUNNY     82  26  13 W28G35    29.88S
HOBBS          CLEAR     86  32  14 SW7       29.74F
MARFA          CLEAR     84  30  14 W14       29.89F
MIDLAND AIRPK  CLEAR     87  30  12 W8        29.72S
MIDLAND INTL   CLEAR     87  30  13 SW8       29.71F
ODESSA         CLEAR     87  29  12 SW6       29.72F
PECOS          CLEAR     94  30  10 W8        29.66F
PRESIDIO       FAIR      93  38  14 CALM      29.74F
SEMINOLE       CLEAR     86  32  14 SW12      29.72F
SNYDER         CLEAR     82  38  20 S9        29.71F
WINK           CLEAR     93  29  10 SW8       29.66F
$$
...OTHER STATIONS IN TEXAS...

CITY           SKY/WX    TMP DP  RH WIND       PRES   REMARKS
ABILENE        CLEAR     78  50  37 SW6       29.70F
AMARILLO       CLEAR     79  36  21 E6        29.68F
AUSTIN         CLEAR     80  55  42 CALM      29.71S
BROWNSVILLE    CLEAR     78  54  43 E8        29.79S
CORPUS CHRISTI PTCLDY    77  60  55 S8        29.75S
DALLAS FTW     CLEAR     77  47  34 E7        29.68F
DEL RIO        CLEAR     82  46  28 SE12      29.71F
EL PASO        SUNNY     94  12   5 W10G21    29.74F
HOUSTON INT    CLEAR     79  45  29 N5        29.73R
LUBBOCK        PTCLDY    87  27  11 W9        29.67F
SAN ANGELO     CLEAR     81  41  24 SW12      29.71F
SAN ANTONIO    CLEAR     82  46  28 SW10      29.74S
WACO           CLEAR     77  54  44 NE5       29.71R
WICHITA FALLS  NOT AVBL
$$
...OTHER LOCATIONS IN NEW MEXICO...

CITY           SKY/WX    TMP DP  RH WIND       PRES   REMARKS
ALAMOGORDO     SUNNY     88  28  11 SE14      29.74F
ALBUQUERQUE    MOSUNNY   87  18   8 W20G29    29.77F
CANNON AFB     CLEAR     85  38  18 S9        29.69F
CLOVIS         CLEAR     82  36  18 S9        29.70S
HOLLOMAN AFB   SUNNY     91  23   8 S9        29.75F
ROSWELL        SUNNY     91  33  12 S10       29.67F
RUIDOSO        SUNNY     75  25  15 W16G22    29.95F
SANTA FE       SUNNY     81  24  12 NW15G25   29.82F
TRUTH OR CONSE SUNNY     92  19   7 W13G25    29.74F
TUCUMCARI      SUNNY     86  41  20 SE15      29.60F
$$

  • National Weather Service
  • Southern Region Headquarters
  • 819 Taylor Street, Room 10A06
  • Fort Worth, TX 76102
  • Page Author: NWS Fort Worth
  • Web Master: SR-SRH.Webmaster@noaa.gov
  •  
  • Page last modified: 30-Sep-2016 6:36 PM UTC
USA.gov is the U.S. government's official web portal to all federal, state and local government web resources and services.